Change the Weather History Date:

Friday, December 7, 2012

  Actual Average Record
Temperature  
Mean Temperature 58 °F -  
Max Temperature 71 °F 57 °F 84 °F (2007)
Min Temperature 45 °F 36 °F 17 °F (2013)
Degree Days  
Heating Degree Days 7    
Growing Degree Days 8 (Base 50)    
Moisture  
Dew Point 44 °F    
Average Humidity 66    
Maximum Humidity 90    
Minimum Humidity 35    
Precipitation  
Precipitation 0.00 in - - ()
Sea Level Pressure  
Sea Level Pressure 29.83 in    
Wind  
Wind Speed 3 mph (WSW)    
Max Wind Speed 10 mph    
Max Gust Speed -    
Visibility 10 miles    
Events      
Averages and records for this station are not official NWS values.
T = Trace of Precipitation, MM = Missing Value Source: NWS Daily Summary

Daily Weather History Graph

Daily Weather History Graph

Search for Another Location

Airport or City:

Trip Planner

Search our weather history database for the weather conditions in past years. The results will help you decide how hot, cold, wet, or windy it might be!

Date:

Astronomy

Dec. 07, 2012 Rise Set
Actual Time 7:19 AM CST 5:22 PM CST
Civil Twilight 6:52 AM CST 5:49 PM CST
Nautical Twilight 6:21 AM CST 6:20 PM CST
Astronomical Twilight 5:51 AM CST 6:50 PM CST
Moon 12:57 AM CST (12/7) 1:04 PM CST (12/7)
Length of Visible Light 10h 57m
Length of Day
10h 03m
Last Quarter, 38% of the Moon is Illuminated
Dec 7
Last Quarter
Dec 13
New
Dec 19
First Quarter
Dec 28
Full
Jan 4
Last Quarter

Hourly Weather History & Observations

Time (CST) Temp. Windchill Dew Point Humidity Pressure Visibility Wind Dir Wind Speed Gust Speed Precip Events Conditions
12:53 AM 55.0 °F - 46.9 °F 74% 29.80 in 10.0 mi Calm Calm - N/A   Clear
1:53 AM 53.1 °F - 48.0 °F 83% 29.79 in 10.0 mi Calm Calm - N/A   Clear
2:53 AM 50.0 °F - 46.0 °F 86% 29.80 in 10.0 mi Calm Calm - N/A   Clear
3:53 AM 46.9 °F - 44.1 °F 90% 29.80 in 10.0 mi SSW 3.5 mph - N/A   Clear
4:53 AM 50.0 °F - 46.0 °F 86% 29.81 in 10.0 mi West 6.9 mph - N/A   Clear
5:53 AM 46.0 °F 44.8 °F 39.0 °F 76% 29.83 in 10.0 mi West 3.5 mph - N/A   Clear
6:53 AM 45.0 °F 42.6 °F 39.0 °F 80% 29.85 in 10.0 mi SW 4.6 mph - N/A   Clear
7:53 AM 45.0 °F 42.6 °F 39.9 °F 82% 29.86 in 10.0 mi SW 4.6 mph - N/A   Clear
8:53 AM 50.0 °F - 42.1 °F 74% 29.88 in 10.0 mi West 5.8 mph - N/A   Clear
9:53 AM 54.0 °F - 43.0 °F 66% 29.88 in 10.0 mi SSW 4.6 mph - N/A   Clear
10:53 AM 59.0 °F - 44.1 °F 58% 29.86 in 10.0 mi SSW 4.6 mph - N/A   Clear
11:53 AM 63.0 °F - 44.1 °F 50% 29.84 in 10.0 mi SSW 6.9 mph - N/A   Clear
12:53 PM 66.9 °F - 41.0 °F 39% 29.81 in 10.0 mi WSW 10.4 mph - N/A   Clear
1:53 PM 70.0 °F - 41.0 °F 35% 29.78 in 10.0 mi South 6.9 mph - N/A   Clear
2:53 PM 71.1 °F - 42.1 °F 35% 29.77 in 10.0 mi SSW 6.9 mph - N/A   Partly Cloudy
3:53 PM 69.1 °F - 44.1 °F 40% 29.78 in 10.0 mi SSW 8.1 mph - N/A   Partly Cloudy
4:53 PM 66.0 °F - 45.0 °F 47% 29.80 in 10.0 mi SW 3.5 mph - N/A   Partly Cloudy
5:53 PM 64.0 °F - 45.0 °F 50% 29.80 in 10.0 mi West 3.5 mph - N/A   Clear
6:53 PM 55.0 °F - 44.1 °F 67% 29.82 in 10.0 mi Calm Calm - N/A   Clear
7:53 PM 51.1 °F - 42.1 °F 71% 29.84 in 10.0 mi Calm Calm - N/A   Partly Cloudy
8:53 PM 55.0 °F - 45.0 °F 69% 29.86 in 10.0 mi Calm Calm - N/A   Scattered Clouds
9:53 PM 54.0 °F - 45.0 °F 72% 29.87 in 10.0 mi North 8.1 mph - N/A   Partly Cloudy
10:53 PM 52.0 °F - 44.1 °F 74% 29.88 in 10.0 mi North 6.9 mph - N/A   Scattered Clouds
11:53 PM 51.1 °F - 44.1 °F 77% 29.88 in 10.0 mi NNE 4.6 mph - N/A   Scattered Clouds